EW9037 Weather Reports


time (UTC)temp
F
wind
direction
speed
knots
gust
knots
rain 1hr
in
rain 24hr
in
rain mn
in
humidity
%
barometer
mb
20211017154557 60 264 2.6 6.1 0.00 0.00 0.00 60 1024.2
20211017153111 59 290 1.7 3.5 0.00 0.00 0.00 64 1024.3
20211017151631 57 255 2.6 5.2 0.00 0.00 0.00 67 1024.3
20211017150116 56 257 1.7 4.3 0.00 0.00 0.00 70 1024.3
20211017144553 54 239 0.9 4.3 0.00 0.00 0.00 77 1024.3
20211017143050 53 265 1.7 4.3 0.00 0.00 0.00 81 1024.3
20211017141554 51 252 0.9 2.6 0.00 0.00 0.00 85 1024.3
20211017140024 48 269 1.7 4.3 0.00 0.00 0.00 92 1024.3
20211017134556 46 274 0.9 2.6 0.00 0.00 0.00 91 1024.3
20211017133024 46 240 0.0 0.9 0.00 0.00 0.00 89 1024.2
20211017131511 44 103 0.0 0.9 0.00 0.00 0.00 90 1024.2
20211017130007 42 101 0.0 0.9 0.00 0.00 0.00 90 1024.0
20211017124506 39 122 0.0 0.0 0.00 0.00 0.00 90 1023.9
20211017123007 36 122 0.0 0.0 0.00 0.00 0.00 91 1023.9
20211017121501 35 122 0.0 0.0 0.00 0.00 0.00 91 1023.8
20211017120128 36 121 0.0 0.0 0.00 0.00 0.00 91 1023.8
20211017114714 35 122 0.0 0.0 0.00 0.00 0.00 91 1023.8
20211017113141 35 121 0.0 0.0 0.00 0.00 0.00 92 1023.7
20211017111624 36 121 0.0 0.0 0.00 0.00 0.00 91 1023.6
20211017110205 37 121 0.0 0.0 0.00 0.00 0.00 91 1023.5
20211017104605 37 121 0.0 0.9 0.00 0.00 0.00 91 1023.6
20211017103113 37 121 0.0 0.0 0.00 0.00 0.00 91 1023.6
20211017101628 37 121 0.0 0.9 0.00 0.00 0.00 91 1023.4
20211017100249 37 122 0.0 0.0 0.00 0.00 0.00 91 1023.3
20211017094623 37 121 0.0 0.0 0.00 0.00 0.00 91 1023.4
20211017093055 37 121 0.0 0.0 0.00 0.00 0.00 91 1023.3
20211017091550 37 121 0.0 0.0 0.00 0.00 0.00 92 1023.2
20211017090053 37 121 0.0 0.0 0.00 0.00 0.00 92 1023.1
20211017084552 37 122 0.0 0.0 0.00 0.00 0.00 92 1023.0
20211017083102 37 122 0.0 0.0 0.00 0.00 0.00 92 1022.9
20211017081559 37 122 0.0 0.0 0.00 0.00 0.00 92 1022.9
20211017080133 38 121 0.0 0.9 0.00 0.00 0.00 91 1022.7
20211017074533 38 121 0.0 0.0 0.00 0.00 0.00 91 1022.8
20211017073054 38 122 0.0 0.0 0.00 0.00 0.00 91 1022.8
20211017071538 38 121 0.0 0.0 0.00 0.00 0.00 91 1022.8
20211017070052 37 122 0.0 0.0 0.00 0.00 0.00 92 1022.8
20211017064546 38 121 0.0 0.0 0.00 0.00 0.00 93 1022.8
20211017063026 38 121 0.0 0.0 0.00 0.00 0.00 93 1022.8
20211017061600 39 122 0.0 0.0 0.00 0.00 0.00 93 1022.7
20211017060020 39 122 0.0 0.0 0.00 0.00 0.00 93 1022.7
20211017054533 39 121 0.0 0.0 0.00 0.05 0.00 93 1022.6
20211017053022 40 121 0.0 0.0 0.00 0.05 0.00 93 1022.5
20211017051531 40 122 0.0 0.0 0.00 0.05 0.00 93 1022.5
20211017050020 40 121 0.0 0.0 0.00 0.05 0.00 94 1022.6
20211017044523 40 121 0.0 0.0 0.00 0.06 0.00 93 1022.5
20211017043019 41 122 0.0 0.0 0.00 0.06 0.00 93 1022.3
20211017041504 40 121 0.0 0.0 0.00 0.06 0.00 94 1022.4
20211017040002 41 121 0.0 0.0 0.00 0.06 0.00 94 1022.4
20211017034632 41 121 0.0 0.0 0.00 0.07 0.06 94 1022.4
20211017033148 42 121 0.0 0.0 0.00 0.07 0.06 93 1022.4
20211017031631 42 122 0.0 0.0 0.00 0.07 0.06 93 1022.5
20211017030121 43 122 0.0 0.9 0.00 0.07 0.06 92 1022.4
20211017024641 44 121 0.0 0.0 0.00 0.07 0.06 92 1022.3
20211017023128 44 129 0.0 0.9 0.00 0.07 0.06 92 1022.1
20211017021629 43 134 0.0 0.9 0.00 0.07 0.06 92 1021.9
20211017020058 43 133 0.0 0.0 0.00 0.07 0.06 91 1021.7
20211017014723 44 132 0.0 0.0 0.00 0.07 0.06 88 1021.5
20211017013059 46 132 0.0 0.0 0.00 0.07 0.06 87 1021.3
20211017011550 47 132 0.0 0.9 0.00 0.07 0.06 84 1021.2
20211017010049 47 174 0.0 0.9 0.00 0.07 0.06 80 1021.1
20211017004604 49 262 0.0 0.0 0.00 0.07 0.06 76 1021.0
20211017003040 50 262 0.0 0.0 0.00 0.07 0.06 72 1021.0
20211017001605 52 263 0.0 0.9 0.00 0.07 0.06 68 1020.8
20211017000030 53 283 0.0 1.7 0.00 0.07 0.06 66 1020.6
20211016234540 54 279 0.9 3.5 0.00 0.07 0.06 64 1020.4
20211016233023 54 283 0.0 3.5 0.00 0.07 0.06 62 1020.1
20211016231534 55 264 1.7 3.5 0.00 0.07 0.06 60 1020.0
20211016230027 56 286 1.7 5.2 0.00 0.07 0.06 58 1019.9
20211016224530 58 290 2.6 6.1 0.00 0.07 0.06 56 1019.6
20211016221519 59 270 2.6 7.8 0.00 0.07 0.06 54 1019.4
20211016220025 59 295 2.6 6.1 0.00 0.07 0.06 54 1019.4
20211016214525 59 288 2.6 7.8 0.00 0.13 0.06 53 1019.2
20211016213041 60 193 1.7 8.7 0.00 0.13 0.06 52 1019.0
20211016211522 61 274 3.5 12.2 0.00 0.13 0.06 48 1018.8
20211016210032 62 11 5.2 12.2 0.00 0.13 0.06 47 1018.8
20211016204536 63 284 3.5 11.3 0.00 0.13 0.06 48 1019.2
20211016203012 62 342 4.3 12.2 0.00 0.13 0.06 47 1019.3
20211016201509 62 287 5.2 12.2 0.00 0.13 0.06 47 1019.3
20211016200018 63 282 3.5 10.4 0.00 0.13 0.06 47 1019.1
20211016194505 63 262 7.8 15.6 0.00 0.13 0.06 44 1018.9
20211016193004 62 311 3.5 9.6 0.00 0.13 0.06 48 1019.1
20211016191509 60 293 3.5 8.7 0.00 0.13 0.06 50 1018.9
20211016190004 61 285 1.7 10.4 0.00 0.13 0.06 51 1019.2
20211016184501 60 284 4.3 11.3 0.00 0.13 0.06 52 1019.2
20211016183001 61 277 3.5 10.4 0.00 0.13 0.06 50 1019.3
20211016181722 62 278 5.2 16.5 0.00 0.13 0.06 47 1019.3
20211016180214 62 264 5.2 12.2 0.00 0.13 0.06 51 1019.4
20211016174648 61 308 4.3 11.3 0.00 0.13 0.06 50 1019.6
20211016173133 60 312 4.3 9.6 0.00 0.13 0.06 52 1019.8
20211016171638 60 323 5.2 12.2 0.00 0.13 0.06 51 1020.1
20211016170115 60 308 6.1 13.0 0.00 0.13 0.06 52 1020.3
20211016164630 59 278 3.5 8.7 0.00 0.13 0.06 54 1020.2
20211016163121 59 255 3.5 12.2 0.00 0.13 0.06 53 1020.3
20211016161624 59 290 2.6 12.2 0.00 0.13 0.06 59 1020.4
20211016160121 58 285 1.7 11.3 0.00 0.13 0.06 61 1020.3